Date String (YYYY-MM-DD hh:mm:ss) UTC,Instrument flags,Ambient pressure (hPa),Sample flow (lpm),Bypass flow (lpm),Sample temperature (°C),Ambient temperature (°C),ASC tube jacket temperature (°C),LED temperature (°C),Box temperature (°C),Sample RH (%),Span deviation,Mass concentration (μg/m³),Mass concentration (μg/m³),Mass concentration (μg/m³)
DateTimeUTC,F1_M11,P_M11,Q1_M11,Q2_M11,T1_M11,T2_M11,T3_M11,T4_M11,T5_M11,U1_M11,ZSPAN_M11,X0_M11,X2_M11,X1_M11
2022-05-19 08:00:00,,0819.7,4.99,0.00,30.1,29.0,00.0,39.0,31.9,09.2,0000.0,0008.63,0003.50,0002.04
2022-05-19 08:01:00,,0819.7,5.01,0.00,30.1,29.0,00.0,39.0,31.9,09.3,0000.0,0008.73,0003.52,0002.04
2022-05-19 08:02:00,,0819.6,5.00,0.00,30.1,29.0,00.0,39.0,31.9,09.4,0000.0,0008.46,0003.43,0002.03
2022-05-19 08:03:00,,0819.6,5.00,0.00,30.1,29.0,00.0,39.0,31.9,09.4,0000.0,0008.38,0003.42,0002.05
2022-05-19 08:04:00,,0819.6,5.01,0.00,30.1,29.0,00.0,39.0,31.9,09.4,0000.0,0008.56,0003.43,0002.04
2022-05-19 08:05:00,,0819.7,5.00,0.00,30.1,29.0,00.0,39.0,31.9,09.5,0000.0,0008.85,0003.45,0002.03
2022-05-19 08:06:00,,0819.7,5.01,0.00,30.1,29.0,00.0,39.0,31.9,09.6,0000.0,0008.97,0003.46,0002.04
2022-05-19 08:07:00,,0819.7,5.00,0.00,30.1,29.0,00.0,39.1,31.9,09.5,0000.0,0009.09,0003.50,0002.07
2022-05-19 08:08:00,,0819.7,4.99,0.00,30.1,29.0,00.0,39.1,31.9,09.6,0000.0,0008.69,0003.48,0002.06
2022-05-19 08:09:00,,0819.6,5.00,0.00,30.1,29.0,00.0,39.1,31.9,09.6,0000.0,0008.06,0003.47,0002.05
2022-05-19 08:10:00,,0819.6,5.01,0.00,30.1,29.0,00.0,39.1,31.9,09.6,0000.0,0008.05,0003.45,0002.05
2022-05-19 08:11:00,,0819.6,5.00,0.00,30.1,29.1,00.0,39.1,31.9,09.7,0000.0,0008.09,0003.45,0002.05
2022-05-19 08:12:00,,0819.6,5.00,0.00,30.1,29.1,00.0,39.1,31.9,09.8,0000.0,0008.16,0003.44,0002.04
2022-05-19 08:13:00,,0819.5,4.99,0.00,30.1,29.1,00.0,39.1,31.9,09.7,0000.0,0008.29,0003.47,0002.04
2022-05-19 08:14:00,,0819.5,5.00,0.00,30.1,29.1,00.0,39.1,31.9,09.6,0000.0,0008.28,0003.45,0002.04
2022-05-19 08:15:00,,0819.5,5.00,0.00,30.1,29.1,00.0,39.1,31.9,10.0,0000.0,0007.97,0003.40,0002.04
2022-05-19 08:16:00,,0819.4,5.01,0.00,30.2,29.1,00.0,39.1,32.0,09.9,0000.0,0007.65,0003.40,0002.06
2022-05-19 08:17:00,,0819.4,5.01,0.00,30.2,29.1,00.0,39.1,32.0,09.8,0000.0,0007.54,0003.44,0002.07
2022-05-19 08:18:00,,0819.4,5.00,0.00,30.2,29.1,00.0,39.1,32.0,09.9,0000.0,0007.49,0003.46,0002.07
2022-05-19 08:19:00,,0819.4,5.00,0.00,30.2,29.1,00.0,39.1,32.0,09.9,0000.0,0007.55,0003.48,0002.08
2022-05-19 08:20:00,,0819.4,5.00,0.00,30.2,28.5,00.0,39.0,31.8,09.8,0000.0,0007.59,0003.49,0002.08
2022-05-19 08:21:00,,0819.4,5.01,0.00,30.0,27.6,00.0,38.9,31.5,10.1,0000.0,0007.59,0003.50,0002.08
2022-05-19 08:22:00,,0819.4,4.99,0.00,30.0,27.3,00.0,38.9,31.4,10.0,0000.0,0007.59,0003.49,0002.06
2022-05-19 08:23:00,,0819.4,5.00,0.00,29.9,27.3,00.0,38.9,31.4,10.0,0000.0,0007.61,0003.50,0002.07
2022-05-19 08:24:00,,0819.4,5.01,0.00,29.8,27.4,00.0,38.8,31.4,10.0,0000.0,0007.74,0003.53,0002.08
2022-05-19 08:25:00,,0819.4,5.02,0.00,29.8,27.6,00.0,38.8,31.4,10.1,0000.0,0007.71,0003.53,0002.08
2022-05-19 08:26:00,,0819.4,5.00,0.00,29.7,27.7,00.0,38.8,31.4,10.1,0000.0,0007.89,0003.59,0002.09
2022-05-19 08:27:00,,0819.4,5.00,0.00,29.7,27.8,00.0,38.8,31.4,09.9,0000.0,0008.08,0003.63,0002.09
2022-05-19 08:28:00,,0819.4,5.00,0.00,29.7,27.9,00.0,38.7,31.4,09.8,0000.0,0008.36,0003.63,0002.09
2022-05-19 08:29:00,,0819.4,4.99,0.00,29.7,28.1,00.0,38.7,31.4,09.6,0000.0,0008.63,0003.62,0002.09
2022-05-19 08:30:00,,0819.3,5.00,0.00,29.7,28.2,00.0,38.7,31.5,09.6,0000.0,0008.70,0003.60,0002.08
2022-05-19 08:31:00,,0819.4,4.99,0.00,29.7,28.2,00.0,38.7,31.5,09.6,0000.0,0008.77,0003.66,0002.11
2022-05-19 08:32:00,,0819.4,4.99,0.00,29.7,28.3,00.0,38.7,31.5,09.6,0000.0,0008.73,0003.68,0002.12
2022-05-19 08:33:00,,0819.3,5.01,0.00,29.7,28.4,00.0,38.7,31.5,09.8,0000.0,0008.67,0003.68,0002.15
2022-05-19 08:34:00,,0819.2,5.02,0.00,29.7,28.4,00.0,38.7,31.5,09.9,0000.0,0008.87,0003.74,0002.18
2022-05-19 08:35:00,,0819.2,4.99,0.00,29.7,28.5,00.0,38.7,31.5,09.8,0000.0,0009.15,0003.73,0002.19
2022-05-19 08:36:00,,0819.3,4.99,0.00,29.7,28.5,00.0,38.7,31.5,09.9,0000.0,0009.03,0003.69,0002.18
2022-05-19 08:37:00,,0819.3,5.01,0.00,29.8,28.5,00.0,38.7,31.6,09.6,0000.0,0008.98,0003.68,0002.19
2022-05-19 08:38:00,,0819.2,5.02,0.00,29.8,28.5,00.0,38.7,31.6,09.7,0000.0,0009.03,0003.71,0002.21
2022-05-19 08:39:00,,0819.3,4.98,0.00,29.8,28.6,00.0,38.7,31.6,09.8,0000.0,0008.79,0003.69,0002.21
2022-05-19 08:40:00,,0819.2,5.01,0.00,29.8,28.6,00.0,38.7,31.6,09.4,0000.0,0008.61,0003.71,0002.23
2022-05-19 08:41:00,,0819.3,5.01,0.00,29.8,28.6,00.0,38.7,31.6,09.4,0000.0,0008.57,0003.73,0002.24
2022-05-19 08:42:00,,0819.2,5.00,0.00,29.8,28.6,00.0,38.7,31.6,09.4,0000.0,0008.42,0003.69,0002.24
2022-05-19 08:43:00,,0819.1,4.99,0.00,29.8,28.6,00.0,38.7,31.6,09.5,0000.0,0008.39,0003.67,0002.25
2022-05-19 08:44:00,,0819.1,5.00,0.00,29.8,28.6,00.0,38.7,31.6,09.6,0000.0,0008.58,0003.72,0002.25
2022-05-19 08:45:00,,0819.1,5.02,0.00,29.8,28.6,00.0,38.7,31.6,09.6,0000.0,0008.52,0003.68,0002.25
2022-05-19 08:46:00,,0819.1,4.99,0.00,29.8,28.7,00.0,38.7,31.6,09.6,0000.0,0008.58,0003.71,0002.23
2022-05-19 08:47:00,,0819.1,4.99,0.00,29.8,28.7,00.0,38.7,31.6,09.5,0000.0,0008.64,0003.72,0002.24
2022-05-19 08:48:00,,0819.1,5.00,0.00,29.8,28.7,00.0,38.7,31.6,09.4,0000.0,0009.41,0003.72,0002.23
2022-05-19 08:49:00,,0819.1,5.01,0.00,29.8,28.7,00.0,38.7,31.6,09.4,0000.0,0009.91,0003.65,0002.22
2022-05-19 08:50:00,,0819.0,4.99,0.00,29.8,28.7,00.0,38.7,31.7,09.4,0000.0,0010.61,0003.62,0002.22
2022-05-19 08:51:00,,0819.0,4.99,0.00,29.8,28.7,00.0,38.7,31.7,09.2,0000.0,0010.64,0003.58,0002.22
2022-05-19 08:52:00,,0819.0,5.00,0.00,29.8,28.7,00.0,38.7,31.7,09.3,0000.0,0010.68,0003.57,0002.21
2022-05-19 08:53:00,,0818.9,5.01,0.00,29.9,28.7,00.0,38.7,31.7,09.3,0000.0,0010.79,0003.56,0002.19
2022-05-19 08:54:00,,0819.0,5.01,0.00,29.9,28.7,00.0,38.7,31.7,09.2,0000.0,0011.07,0003.56,0002.17
2022-05-19 08:55:00,,0819.0,4.99,0.00,29.9,28.7,00.0,38.7,31.7,09.2,0000.0,0011.78,0003.54,0002.17
2022-05-19 08:56:00,,0818.9,5.01,0.00,29.9,28.7,00.0,38.7,31.7,09.3,0000.0,0011.83,0003.55,0002.18
2022-05-19 08:57:00,,0818.9,5.00,0.00,29.9,28.7,00.0,38.7,31.7,09.3,0000.0,0011.46,0003.53,0002.17
2022-05-19 08:58:00,,0818.9,5.01,0.00,29.9,28.7,00.0,38.7,31.7,09.2,0000.0,0011.56,0003.56,0002.16
2022-05-19 08:59:00,,0818.9,5.00,0.00,29.9,28.7,00.0,38.7,31.7,09.2,0000.0,0010.87,0003.59,0002.15
